Theta_e
331 330 330 331 332 333 333 334 337 341 344 347 346 343 341 341 340 340 340 340 341 341 342 343 343 344 344 345 345 344 344 343 342 341 339 338 338 339 340 342 341 340
333 332 331 330 330 331 332 333 333 336 340 344 346 344 343 343 342 340 339 339 340 341 341 341 341 342 343 344 344 344 344 343 343 344 342 339 338 338 339 341 341 341
336 336 334 331 330 330 331 332 332 333 336 339 344 344 343 343 343 342 340 338 339 341 341 341 341 341 341 343 343 344 344 345 345 345 343 341 340 338 338 339 339 340
337 337 336 334 332 330 330 330 331 332 333 336 339 342 343 343 343 344 342 340 339 340 341 341 341 341 341 341 342 343 345 346 347 345 344 344 342 340 338 336 335 336
339 336 337 337 335 333 331 329 329 330 330 332 335 338 340 342 343 344 344 342 342 342 342 342 342 342 341 341 341 342 344 346 347 347 345 345 345 343 341 337 332 332
342 338 336 337 337 336 334 330 328 328 328 329 331 333 336 338 340 342 343 343 343 343 343 343 343 343 342 342 342 342 342 343 345 346 346 346 347 346 345 341 335 331
345 342 339 337 337 337 336 333 330 328 327 327 328 330 331 333 336 340 342 342 343 343 343 343 343 344 344 344 343 342 342 342 342 343 344 344 346 347 346 343 339 334
345 345 343 339 338 336 336 335 333 331 328 327 326 327 329 330 332 336 339 341 342 342 342 342 341 341 342 342 342 342 342 342 341 341 341 341 342 343 345 344 342 339
345 345 345 343 340 339 337 336 336 334 331 329 327 327 327 328 329 331 335 338 341 341 341 340 338 337 336 335 336 336 337 338 340 341 340 340 339 340 342 343 342 340
345 346 345 345 343 341 341 339 337 336 334 332 330 328 327 327 328 329 331 334 338 340 339 337 334 333 331 330 330 330 331 332 336 339 340 340 339 339 339 340 341 340
346 346 346 345 345 344 343 342 341 339 336 334 332 331 329 327 327 327 328 330 333 334 333 331 330 330 329 328 328 328 329 329 331 334 337 339 339 339 338 338 339 339
346 346 346 346 345 345 344 344 343 342 340 337 335 333 331 329 328 327 327 327 328 328 328 327 327 327 327 327 327 327 327 328 329 329 332 335 337 339 339 338 338 338
346 346 346 346 346 346 345 345 345 344 343 342 340 338 335 332 329 328 327 327 326 326 326 326 326 326 326 326 326 326 326 326 327 327 328 330 332 335 337 338 338 337
346 346 346 346 346 346 345 345 345 345 345 344 344 343 341 337 333 329 327 327 327 326 326 326 326 326 326 326 325 325 325 325 326 326 326 327 328 330 333 335 337 337
346 346 346 346 346 346 346 346 346 346 346 346 345 345 344 343 340 336 332 329 327 327 326 326 326 326 326 325 325 325 325 325 325 325 325 325 326 328 330 332 334 335
346 346 346 346 346 346 346 346 346 346 346 346 346 346 346 346 345 344 340 335 330 328 327 327 326 326 326 325 325 325 325 325 325 326 326 325 325 326 328 330 331 333
346 346 346 346 346 346 347 346 347 347 347 347 347 347 347 347 347 347 347 344 339 333 328 327 327 326 326 326 325 325 325 326 326 325 325 325 325 324 325 328 330 331
347 346 346 346 346 347 347 347 347 347 347 347 347 347 347 348 348 349 349 349 347 342 335 329 326 325 326 325 325 325 325 325 326 325 325 325 325 325 325 326 329 331
346 347 347 347 347 347 347 347 347 347 347 347 348 348 347 348 349 349 350 351 351 349 344 336 329 324 324 324 324 324 325 325 324 324 324 324 324 324 324 325 327 329
347 347 347 347 347 347 347 347 347 348 348 347 348 348 348 348 349 350 351 351 352 352 351 347 339 329 325 324 324 323 324 324 324 324 324 324 324 324 324 324 326 328
347 348 348 348 348 348 348 348 348 348 348 348 348 348 349 349 350 350 351 352 353 353 353 353 349 340 333 330 326 325 325 325 326 327 326 325 324 324 325 325 326 328
348 348 348 348 348 348 348 348 349 349 349 349 349 349 349 350 351 351 352 353 354 354 354 355 354 351 346 341 335 332 332 333 332 331 330 329 327 326 326 328 329 330
352 350 349 349 349 349 349 349 350 350 350 350 350 350 350 351 352 353 354 355 355 355 356 356 355 354 353 349 346 344 344 342 339 336 335 333 331 330 330 331 331 332
353 353 352 351 350 350 350 350 351 351 351 352 352 352 352 353 354 354 355 356 356 356 357 357 357 357 356 354 353 352 352 350 347 344 342 339 336 335 334 334 333 333
353 354 355 354 352 351 351 352 352 352 353 353 353 354 354 355 355 356 356 357 357 357 358 358 359 359 358 358 357 356 355 354 352 350 348 343 340 337 336 335 335 335
354 354 356 356 354 353 353 353 353 354 354 355 356 356 356 357 357 357 358 358 358 359 359 359 360 360 360 360 359 358 357 355 353 352 349 345 341 339 338 337 336 337
Wind_Speed
27 25 24 22 20 19 18 18 18 18 17 17 17 16 14 11 11 11 11 10 9 8 9 9 8 8 8 8 9 9 9 9 8 9 11 12 12 11 9 8 6 5
26 25 25 23 21 19 19 19 19 18 18 17 17 17 15 12 11 11 11 11 10 9 9 10 10 10 9 9 9 9 9 9 8 8 9 10 11 11 10 9 8 7
26 25 25 24 22 20 19 19 19 19 19 18 18 18 17 15 12 12 12 11 11 10 10 10 11 10 10 10 10 10 10 9 8 8 8 9 10 10 10 11 10 10
27 26 25 24 23 22 20 20 19 19 20 20 19 19 19 18 15 13 13 12 12 11 11 11 11 11 10 10 11 11 11 10 9 9 8 8 8 9 9 10 11 11
27 26 26 25 23 22 21 21 21 20 20 20 20 20 20 20 18 16 14 14 13 12 11 12 12 11 11 11 11 11 11 11 11 10 10 8 7 7 8 9 10 11
27 27 26 26 24 23 22 22 22 21 21 20 20 21 21 21 20 19 17 16 14 13 12 12 12 12 12 11 11 11 11 11 11 11 11 9 8 7 8 8 8 9
28 27 26 26 25 24 24 23 23 23 22 21 21 20 21 21 21 21 20 18 17 16 14 13 13 12 12 12 12 11 11 11 11 12 12 11 10 9 8 8 8 8
30 29 28 27 26 26 26 24 24 24 23 23 22 21 21 21 21 21 21 20 20 18 17 15 14 13 13 13 12 11 11 11 11 12 12 12 12 10 9 9 9 8
31 31 29 28 28 28 27 26 25 24 24 24 23 23 22 21 21 21 21 21 21 21 19 17 16 15 14 13 13 12 12 12 12 12 12 13 13 12 11 10 10 9
33 32 31 31 30 29 28 28 27 26 25 25 24 24 24 23 22 22 22 22 22 22 21 19 18 16 15 14 13 13 13 12 12 12 13 13 13 13 13 12 12 11
34 33 33 32 31 30 29 28 28 28 26 25 25 25 25 25 24 23 23 24 24 24 22 21 20 18 17 15 14 13 13 13 13 14 14 14 14 14 14 14 14 13
35 34 34 33 32 31 30 29 29 29 28 27 26 26 26 26 26 26 25 25 25 25 24 23 22 20 19 17 16 15 14 14 13 14 14 15 15 15 15 15 15 15
35 34 34 33 32 31 30 30 29 29 29 28 28 27 27 27 28 28 28 27 27 27 26 25 24 23 22 20 19 18 17 16 15 15 14 15 16 16 16 16 16 16
35 34 34 33 33 32 31 30 30 30 29 29 29 29 28 28 28 29 29 29 29 29 28 28 27 26 25 23 22 21 20 19 19 17 16 15 15 16 17 18 17 17
36 35 35 34 34 33 32 31 31 31 30 29 29 28 29 29 29 29 30 31 31 31 31 30 30 29 28 26 25 24 23 22 22 20 19 18 17 17 17 18 19 19
37 37 36 36 35 33 32 32 32 31 31 30 29 29 29 29 29 29 30 31 32 33 33 34 34 33 31 29 28 26 25 25 24 23 22 21 20 19 18 18 19 20
36 37 37 37 35 34 33 33 32 32 31 30 29 29 29 28 27 28 29 30 32 34 35 36 36 35 33 31 30 29 28 27 27 26 25 24 23 22 21 20 20 21
36 37 38 37 36 35 34 34 33 33 32 31 30 29 29 28 28 27 28 28 30 33 35 37 38 37 35 34 32 31 30 29 29 28 28 27 26 24 23 22 21 21
36 36 37 37 36 36 35 34 34 34 33 31 31 30 30 29 28 28 28 28 28 31 34 36 38 38 36 36 35 34 32 32 32 31 30 29 28 27 25 24 23 23
35 35 37 37 36 36 35 35 34 34 33 32 32 32 31 30 29 29 29 29 29 30 31 34 36 38 37 36 35 35 34 33 33 33 32 31 30 29 28 26 25 25
34 34 35 35 36 36 35 35 34 33 33 33 33 32 31 29 29 30 30 30 29 30 30 32 35 37 37 37 36 36 35 35 34 34 33 33 32 31 30 29 28 27
32 35 35 35 35 36 36 35 34 33 32 32 32 33 32 30 29 30 31 30 30 31 31 32 34 34 35 36 37 36 35 35 35 35 35 35 34 33 32 31 30 30
26 31 36 37 36 36 36 35 34 33 31 31 32 32 33 32 30 30 30 30 30 31 32 33 34 34 33 34 34 34 34 34 36 36 36 36 35 34 33 32 32 31
26 26 30 36 38 37 36 35 34 33 31 31 31 31 31 31 30 29 30 30 30 31 32 32 32 32 32 33 33 32 32 33 34 35 36 36 36 35 34 33 33 33
29 26 25 31 36 38 37 36 34 32 31 30 29 29 30 30 30 31 31 30 31 31 31 31 31 31 30 30 30 30 31 32 33 34 36 37 36 36 35 34 34 34
29 29 26 27 33 36 36 36 34 32 30 30 29 28 28 28 29 31 32 32 31 31 31 32 31 31 30 28 27 28 29 30 32 34 36 37 37 36 36 36 35 35
Wind_Direction
227 227 228 230 230 230 229 226 225 224 224 225 225 223 221 222 223 223 224 226 229 228 221 218 218 218 219 220 222 226 226 220 218 222 228 232 236 242 246 247 248 253
225 226 227 228 229 230 231 230 229 229 228 228 228 226 225 226 226 226 227 229 231 231 225 221 222 220 219 221 223 225 228 224 218 219 226 229 230 233 238 243 243 243
225 225 225 226 227 227 229 231 230 230 230 230 228 227 226 227 227 228 230 231 230 230 227 224 224 224 221 222 225 228 232 231 225 224 226 228 228 229 235 241 241 240
227 226 225 226 226 226 227 230 231 231 230 228 227 226 226 227 228 228 229 231 228 227 228 227 226 228 227 227 228 230 233 235 233 232 231 230 229 231 235 242 241 236
228 227 226 226 226 225 226 227 229 231 230 229 228 227 226 226 227 226 226 228 227 225 226 228 228 230 232 234 234 234 234 236 237 237 238 235 233 235 238 242 240 231
230 229 228 227 226 225 225 227 228 231 231 231 230 229 228 226 225 224 224 225 226 225 224 226 228 231 234 237 238 239 239 239 240 240 241 241 239 240 240 243 242 231
231 231 230 229 228 227 226 227 229 231 233 233 233 232 230 228 225 223 224 225 226 226 224 225 226 229 233 236 238 240 241 244 245 243 244 245 244 244 241 241 243 237
232 233 232 231 230 229 229 228 229 231 233 234 235 235 233 231 229 226 224 225 225 226 225 225 227 228 230 235 237 240 241 244 247 247 246 246 245 245 243 240 240 238
234 234 234 233 233 232 232 230 230 230 231 233 235 237 238 236 234 232 228 225 225 226 226 227 229 229 230 234 238 242 244 244 246 247 247 246 245 244 243 242 241 237
236 236 236 235 235 235 234 233 232 231 231 232 234 236 239 239 238 237 233 228 226 226 227 229 230 230 232 236 239 243 247 248 248 246 246 246 246 245 243 243 245 243
238 238 238 238 237 237 237 236 236 234 232 231 232 235 238 239 239 238 236 232 228 226 227 228 230 232 235 238 241 244 247 250 251 249 248 247 246 246 245 244 245 246
240 239 240 240 240 239 239 238 238 238 236 232 231 233 235 237 239 238 237 234 232 230 229 229 231 234 236 239 243 245 247 249 251 252 251 250 249 249 248 248 247 247
242 242 242 242 242 241 241 240 240 239 239 237 235 234 234 236 237 238 238 237 236 234 233 232 233 235 237 241 244 247 248 249 251 252 253 253 251 251 251 251 251 249
245 245 245 245 245 245 243 243 242 241 241 240 239 238 236 236 237 238 239 239 239 238 237 236 236 237 239 241 244 247 249 250 251 252 253 253 253 252 251 251 252 252
248 247 247 247 246 247 246 245 244 244 243 243 242 241 240 239 238 239 240 241 241 241 240 240 240 239 239 240 242 245 248 251 252 253 254 255 254 253 252 251 251 251
250 249 248 248 248 248 248 247 246 246 246 246 244 243 243 242 241 240 240 241 242 242 242 242 242 241 240 240 242 244 247 250 252 253 255 257 256 254 252 251 250 250
251 250 250 250 250 250 250 249 248 248 248 248 247 246 245 244 243 242 241 241 242 242 243 243 243 242 242 242 242 243 246 248 250 252 255 256 257 256 253 251 250 249
250 251 252 252 252 252 252 251 250 250 249 249 248 247 247 245 244 243 243 242 243 243 243 243 243 242 242 243 243 243 245 247 249 252 254 254 255 255 254 252 250 249
250 251 253 254 254 254 254 253 252 251 251 251 250 249 249 248 247 246 246 245 244 244 244 244 244 243 242 242 242 242 243 246 248 250 251 252 252 253 253 252 250 249
250 252 254 255 256 256 255 254 254 254 253 252 252 252 251 250 249 249 249 247 246 246 246 246 246 244 242 241 241 241 242 244 246 248 250 250 250 250 251 251 251 249
250 253 255 256 256 256 256 255 254 255 254 253 253 253 253 252 252 252 252 250 249 249 249 248 246 245 244 242 241 241 241 243 245 247 248 249 248 249 250 251 250 248
252 254 255 257 257 255 255 255 255 255 255 254 254 254 254 254 252 252 252 251 250 250 250 248 246 245 244 243 242 241 242 243 245 245 247 248 248 248 249 249 249 247
245 251 253 254 254 254 254 254 255 255 255 255 254 254 254 254 253 253 252 252 251 250 250 249 247 245 244 243 242 242 242 243 244 245 246 247 247 248 249 248 247 246
234 242 249 251 251 252 254 254 254 255 254 255 255 255 255 257 257 256 255 253 251 251 250 250 250 248 247 245 244 243 243 244 244 245 246 246 246 247 247 246 246 244
235 237 243 249 251 251 252 252 253 254 253 254 255 256 257 258 258 257 256 254 254 253 253 253 253 252 251 249 247 245 245 245 245 246 246 245 245 245 245 244 245 244
235 238 240 246 250 252 252 252 251 251 251 253 253 254 255 255 256 257 257 257 257 257 257 256 255 254 253 252 249 247 246 244 244 244 244 243 243 243 242 242 243 244